Location: Newark
(34.9500°N, 139.9667°E)
Time: 09:57:25
(UTC+00:00)

Vanguard 2 Rocket - Pass Details

Date: 15 December 2019
Orbit: 554 x 3326 km, 32.9° (Epoch: 17 January)

Event Time Altitude Azimuth Distance (km) Brightness Sun altitude
Rises 09:03:04 0° 263° (W) 6,918 13.0 -18.5°
Reaches altitude 10° 09:08:11 10° 263° (W) 5,593 12.1 -19.5°
Maximum altitude 09:23:45 81° 179° (S) 1,871 8.3 -22.6°
Enters shadow 09:28:30 36° 97° (E) 2,249 8.3 -23.6°
Drops below altitude 10° 09:32:15 10° 93° (E) 3,245 - -24.3°
Sets 09:34:28 0° 92° (E) 3,950 - -24.8°
